Flag for France Weather past 2 weeks in Tours, France

Now
68 °F

Scattered clouds.


Feels Like: 68 °F
Forecast: 48 / 68 °F
Wind: 7 mph from Northwest

Location: Tours Airport

Current Time: Sep 2, 2015 at 3:45:35 PM

Latest Report: Sep 2, 2015 at 3:00 PM


Visibility: N/A

Pressure: 30.07 "Hg

Humidity: 46%

Dew point: 46 °F

Location of ToursLocation

Historic Weather in Tours — Graph

°F

Tours temperature yesterday

Maximum temperature yesterday: 72 °F (at 4:00 PM)
Minimum temperature yesterday: 59 °F (at 9:00 AM)
Average temperature yesterday: 65 °F

Past Weeks' High & Low Weather Summary

 TemperatureHumidityPressure
High91 °F (Aug 22, 4:30 PM)100% (Aug 23, 6:30 AM)30.21 "Hg (Aug 23, 6:30 AM)
Low50 °F (Aug 25, 7:30 AM)26% (Aug 22, 2:30 PM)29.47 "Hg (Aug 24, 7:30 AM)
Average69 °F69%29.97 "Hg
* Reported Aug 18 2:00 PM — Sep 2 2:30 PM, Tours, Weather by CustomWeather, © 2015

Note: Actual official high and low records may vary slightly from our data, if they occured in-between our weather recording intervals... More about our weather records

Advertising

Tours weather history for previous 24 hours

 ConditionsComfort  
Time TempWeatherWind HumidityBarometerVisibility
2:30 PM
Wed, Sep 2
68 °FBroken clouds.7 mph46%30.07 "HgN/A
2:00 PM68 °FPassing clouds.6 mph43%30.07 "HgN/A
1:30 PM68 °FPartly sunny.6 mph49%30.07 "HgN/A
1:00 PM68 °FScattered clouds.6 mph49%30.07 "HgN/A
12:30 PM64 °FPassing clouds.2 mph56%30.09 "HgN/A
12:00 PM64 °FPassing clouds.5 mph56%30.09 "HgN/A
11:30 AM64 °FScattered clouds.5 mph60%30.09 "HgN/A
11:00 AM63 °FPartly sunny.3 mph68%30.09 "HgN/A
10:30 AM61 °FPassing clouds.3 mph72%30.09 "HgN/A
10:00 AM59 °FScattered clouds.3 mph72%30.09 "HgN/A
9:30 AM57 °FMostly cloudy.3 mph77%30.09 "HgN/A
9:00 AM55 °FPassing clouds.3 mph82%30.09 "HgN/A
8:30 AM54 °FPassing clouds.3 mph88%30.09 "HgN/A
8:00 AM50 °FPassing clouds.No wind94%30.09 "HgN/A
7:30 AM50 °FPassing clouds.1 mph94%30.09 "HgN/A
7:00 AM50 °FClear.No wind94%30.09 "Hg10 mi
6:00 AM52 °FPassing clouds.3 mph94%30.09 "HgN/A
5:30 AM54 °FPassing clouds.3 mph88%30.09 "HgN/A
5:00 AM54 °FClear.3 mph88%30.09 "Hg10 mi
4:30 AM54 °FClear.No wind88%30.09 "Hg10 mi
4:00 AM54 °FClear.3 mph88%30.09 "Hg10 mi
3:30 AM55 °FClear.2 mph82%30.09 "Hg10 mi
3:00 AM55 °FClear.2 mph88%30.09 "Hg10 mi
2:30 AM55 °FClear.2 mph82%30.09 "Hg10 mi
2:00 AM57 °FClear.2 mph82%30.12 "Hg10 mi
1:00 AM59 °FClear.5 mph77%30.12 "Hg10 mi
11:30 PM
Tue, Sep 1
61 °FClear.3 mph77%30.12 "Hg10 mi
11:00 PM61 °FClear.3 mph77%30.12 "Hg10 mi
10:30 PM63 °FClear.3 mph73%30.12 "Hg10 mi
10:00 PM63 °FClear.3 mph73%30.12 "Hg10 mi
9:30 PM63 °FSunny.3 mph73%30.12 "Hg10 mi
9:00 PM64 °FSunny.3 mph68%30.09 "Hg10 mi
8:30 PM66 °FPassing clouds.6 mph64%30.09 "HgN/A
8:00 PM68 °FPassing clouds.6 mph56%30.09 "HgN/A
7:30 PM70 °FPassing clouds.7 mph53%30.09 "HgN/A
7:00 PM70 °FPassing clouds.7 mph50%30.09 "HgN/A
6:30 PM72 °FMore clouds than sun.12 mph47%30.09 "HgN/A
6:00 PM70 °FPartly sunny.9 mph53%30.09 "HgN/A
5:30 PM72 °FScattered clouds.8 mph50%30.09 "HgN/A
5:00 PM72 °FPassing clouds.8 mph53%30.09 "HgN/A
4:30 PM70 °FPartly sunny.10 mph53%30.09 "HgN/A
4:00 PM72 °FScattered clouds.8 mph50%30.09 "HgN/A
3:30 PM70 °FPartly sunny.8 mph57%30.09 "HgN/A
3:00 PM68 °FPartly sunny.8 mph56%30.09 "HgN/A
Weather by CustomWeather, © 2015

See weather overviewHow to use our weather pages